Hlavní strana
METAR-TAF:

METAR-TAF

Letiště :

Shelbyville, Tennessee, Spojené státy americké

zeměpisná šířka: 35-33-34N, zeměpisná délka: 086-26-33W, výška: 244 m

Aktuální stav počasí

Zpráva byla vytvořena před 15 minutami, v 07:35 UTC
Východojihovýchodní vítr 4 kt
Teplota 3°C
Vlhkost vzduchu 93%
Tlak 1024 hPa
Viditelnost: 16.1 km
Jasno

METAR: KSYI 080735Z AUTO 11004KT 10SM CLR 03/02 A3023 RMK A01

Čas: 01:50 (07:50 UTC)


TAF: chybějící

Stav a předpovědi počasí z více než 4 000 letišť (zprávy METAR a TAF).

Červené a žluté tečky na mapě představují dostupné meteorologické stanice.

Když kurzor umístíte na tečku, zobrazí se název stanice.

Pak kliknutím zobrazíte stav a předpověď počasí.

Chcete-li změnit mapu, kliknutím na zelené tlačítko se znaménkem +mapu přiblížíte, kliknutím na zelené tlačítko se znaménkem – mapu oddálíte a kliknutím na zelené šipky přejdete na sousední mapy.


METAR-TAF: